STARLINK-1377 (45547 NORAD) Tracking and Keplerian Element Data

This shows tracking and keplerian element data for the satellite.

Feedback or suggestion? Click here.




ElementValue
Catalog45547
NameSTARLINK-1377
Epoch Orbit628
Epoch Day149.41668981
Epoch Year2020
RAAN225.8202
Inclination52.9946
Eccentricity0.0002523
Argument of Perigee352.4645
Mean Anonmoly274.1754
Mean Motion15.34701024
Decay Rate0.04033613
L11 45547U 20025S 20149.41668981 .04033613 00000-0 10432+0 0 9992
L22 45547 52.9946 225.8202 0002523 352.4645 274.1754 15.34701024 6287

Live tracking and technical data element details for STARLINK-1377 (NORAD 45547). STARLINK-1377 can be tracked NOW for your location showing map with azimuth and elevation plus other details from your city location.

Track the satellite on the map from your city or location and see movement details for azimuth, elevation, latitude, longitude, range, height, and movement on the map or in text.







IsCatalogInMostPopularTable: catalog: 45547, numindb: 6
Update: records affected: 1



GetName: 45547 STARLINK-1377

Hit Count: updated at: Sat, 30 May 2020 13:40:32 GMT